Location: Middle Street
(51.7167°N, 0.0333°E)
Time: 20:10:30
(UTC+00:00)

USA 229 DEB - Pass Details

Date: 20 January 2021
Orbit: 965 x 1247 km, 63.4° (Epoch: 26 February)

Event Time Altitude Azimuth Distance (km) Brightness Sun altitude
Rises 17:46:57 0° 307° (NW) 3,864 7.2 -11.9°
Reaches altitude 10° 17:49:41 10° 314° (NW) 2,948 6.4 -12.3°
Maximum altitude 17:56:24 44° 26° (NNE) 1,537 4.2 -13.3°
Enters shadow 18:01:49 17° 91° (E) 2,594 5.1 -14.1°
